owner,sensor,date,latitude,longitude,vertical_datum,wind_speed,wind_to_direction,wind_speed_of_gust,qcFlag 
COMPS,ioos:station:USF.COMPS:ARP:1,2010-05-01T00:00:00Z,28.4330,-82.6670,10.0,0.5,160.0,,'1111122,1111122,1111122' 
COMPS,ioos:station:USF.COMPS:ARP:1,2010-05-01T01:00:00Z,28.4330,-82.6670,10.0,0.5,140.0,,'1111122,1111122,1111122' 
COMPS,ioos:station:USF.COMPS:ARP:1,2010-05-01T03:00:00Z,28.4330,-82.6670,10.0,0.5,150.0,,'1111122,1111122,1111122' 
COMPS,ioos:station:USF.COMPS:ARP:1,2010-05-01T04:00:00Z,28.4330,-82.6670,10.0,1.5,120.0,,'1111122,1111122,1111122' 
COMPS,ioos:station:USF.COMPS:ARP:1,2010-05-01T05:00:00Z,28.4330,-82.6670,10.0,1.5,130.0,,'1111122,1111122,1111122' 
COMPS,ioos:station:USF.COMPS:ARP:1,2010-05-01T06:00:00Z,28.4330,-82.6670,10.0,2.1,140.0,,'1111122,1111122,1111122' 
COMPS,ioos:station:USF.COMPS:ARP:1,2010-05-01T07:00:00Z,28.4330,-82.6670,10.0,1.5,140.0,,'1111122,1111122,1111122' 
COMPS,ioos:station:USF.COMPS:ARP:1,2010-05-01T08:00:00Z,28.4330,-82.6670,10.0,1.5,140.0,,'1111122,1111122,1111122' 
COMPS,ioos:station:USF.COMPS:ARP:1,2010-05-01T09:00:00Z,28.4330,-82.6670,10.0,2.1,130.0,,'1111122,1111122,1111122' 
COMPS,ioos:station:USF.COMPS:ARP:1,2010-05-01T10:00:00Z,28.4330,-82.6670,10.0,2.6,130.0,,'1111122,1111122,1111122' 
COMPS,ioos:station:USF.COMPS:ARP:1,2010-05-01T11:00:00Z,28.4330,-82.6670,10.0,2.6,120.0,,'1111122,1111122,1111122' 
COMPS,ioos:station:USF.COMPS:ARP:1,2010-05-01T12:00:00Z,28.4330,-82.6670,10.0,2.1,130.0,,'1111122,1111122,1111122' 
COMPS,ioos:station:USF.COMPS:ARP:1,2010-05-01T13:00:00Z,28.4330,-82.6670,10.0,2.1,150.0,,'1111122,1111122,1111122' 
COMPS,ioos:station:USF.COMPS:ARP:1,2010-05-01T14:00:00Z,28.4330,-82.6670,10.0,3.1,190.0,,'1111122,1111122,1111122' 
COMPS,ioos:station:USF.COMPS:ARP:1,2010-05-01T15:00:00Z,28.4330,-82.6670,10.0,2.6,180.0,,'1111122,1111122,1111122' 
COMPS,ioos:station:USF.COMPS:ARP:1,2010-05-01T16:00:00Z,28.4330,-82.6670,10.0,2.6,220.0,,'1111122,1111122,1111122' 
COMPS,ioos:station:USF.COMPS:ARP:1,2010-05-01T18:00:00Z,28.4330,-82.6670,10.0,3.1,220.0,,'1111122,1111122,1111122' 
COMPS,ioos:station:USF.COMPS:ARP:1,2010-05-01T19:00:00Z,28.4330,-82.6670,10.0,4.6,290.0,,'1111122,1111122,1111122' 
COMPS,ioos:station:USF.COMPS:ARP:1,2010-05-01T20:00:00Z,28.4330,-82.6670,10.0,4.1,270.0,,'1111122,1111122,1111122' 
COMPS,ioos:station:USF.COMPS:ARP:1,2010-05-01T21:00:00Z,28.4330,-82.6670,10.0,3.1,270.0,,'1111122,1111122,1111122' 
COMPS,ioos:station:USF.COMPS:ARP:1,2010-05-01T22:00:00Z,28.4330,-82.6670,10.0,4.6,280.0,,'1111122,1111122,1111122' 
COMPS,ioos:station:USF.COMPS:ARP:1,2010-05-01T23:00:00Z,28.4330,-82.6670,10.0,2.6,270.0,,'1111122,1111122,1111122' 
COMPS,ioos:station:USF.COMPS:ARP:1,2010-05-02T01:00:00Z,28.4330,-82.6670,10.0,1.0,260.0,,'1111122,1111122,1111122' 
COMPS,ioos:station:USF.COMPS:ARP:1,2010-05-02T02:00:00Z,28.4330,-82.6670,10.0,0.5,190.0,,'1111122,1111122,1111122' 
COMPS,ioos:station:USF.COMPS:ARP:1,2010-05-02T03:00:00Z,28.4330,-82.6670,10.0,0.5,130.0,,'1111122,1111122,1111122' 
COMPS,ioos:station:USF.COMPS:ARP:1,2010-05-02T06:00:00Z,28.4330,-82.6670,10.0,2.1,130.0,,'1111122,1111122,1111122' 
COMPS,ioos:station:USF.COMPS:ARP:1,2010-05-02T07:00:00Z,28.4330,-82.6670,10.0,2.1,150.0,,'1111122,1111122,1111122' 
COMPS,ioos:station:USF.COMPS:ARP:1,2010-05-02T09:00:00Z,28.4330,-82.6670,10.0,2.1,150.0,,'1111122,1111122,1111122' 
COMPS,ioos:station:USF.COMPS:ARP:1,2010-05-02T10:00:00Z,28.4330,-82.6670,10.0,2.6,140.0,,'1111122,1111122,1111122' 
COMPS,ioos:station:USF.COMPS:ARP:1,2010-05-02T11:00:00Z,28.4330,-82.6670,10.0,2.1,140.0,,'1111122,1111122,1111122' 
COMPS,ioos:station:USF.COMPS:ARP:1,2010-05-02T12:00:00Z,28.4330,-82.6670,10.0,2.1,160.0,,'1111122,1111122,1111122' 
COMPS,ioos:station:USF.COMPS:ARP:1,2010-05-02T13:00:00Z,28.4330,-82.6670,10.0,3.1,170.0,,'1111122,1111122,1111122' 
COMPS,ioos:station:USF.COMPS:ARP:1,2010-05-02T14:00:00Z,28.4330,-82.6670,10.0,2.1,180.0,,'1111122,1111122,1111122' 
COMPS,ioos:station:USF.COMPS:ARP:1,2010-05-02T16:00:00Z,28.4330,-82.6670,10.0,3.1,150.0,,'1111122,1111122,1111122' 
COMPS,ioos:station:USF.COMPS:ARP:1,2010-05-02T19:00:00Z,28.4330,-82.6670,10.0,2.1,210.0,,'1111122,1111122,1111122' 
COMPS,ioos:station:USF.COMPS:ARP:1,2010-05-02T20:00:00Z,28.4330,-82.6670,10.0,5.1,280.0,,'1111122,1111122,1111122' 
COMPS,ioos:station:USF.COMPS:ARP:1,2010-05-02T21:00:00Z,28.4330,-82.6670,10.0,5.1,270.0,,'1111122,1111122,1111122' 
COMPS,ioos:station:USF.COMPS:ARP:1,2010-05-02T22:00:00Z,28.4330,-82.6670,10.0,4.6,270.0,,'1111122,1111122,1111122' 
COMPS,ioos:station:USF.COMPS:ARP:1,2010-05-03T00:00:00Z,28.4330,-82.6670,10.0,2.6,270.0,,'1111122,1111122,1111122' 
COMPS,ioos:station:USF.COMPS:ARP:1,2010-05-03T01:00:00Z,28.4330,-82.6670,10.0,1.0,260.0,,'1111122,1111122,1111122' 
COMPS,ioos:station:USF.COMPS:ARP:1,2010-05-03T03:00:00Z,28.4330,-82.6670,10.0,0.5,210.0,,'1111122,1111122,1111122' 
COMPS,ioos:station:USF.COMPS:ARP:1,2010-05-03T04:00:00Z,28.4330,-82.6670,10.0,0.5,170.0,,'1111122,1111122,1111122' 
COMPS,ioos:station:USF.COMPS:ARP:1,2010-05-03T05:00:00Z,28.4330,-82.6670,10.0,1.0,150.0,,'1111122,1111122,1111122' 
COMPS,ioos:station:USF.COMPS:ARP:1,2010-05-03T06:00:00Z,28.4330,-82.6670,10.0,0.5,140.0,,'1111122,1111122,1111122' 
COMPS,ioos:station:USF.COMPS:ARP:1,2010-05-03T07:00:00Z,28.4330,-82.6670,10.0,2.1,130.0,,'1111122,1111122,1111122' 
COMPS,ioos:station:USF.COMPS:ARP:1,2010-05-03T08:00:00Z,28.4330,-82.6670,10.0,1.5,150.0,,'1111122,1111122,1111122' 
COMPS,ioos:station:USF.COMPS:ARP:1,2010-05-03T10:00:00Z,28.4330,-82.6670,10.0,1.0,160.0,,'1111122,1111122,1111122' 
COMPS,ioos:station:USF.COMPS:ARP:1,2010-05-03T11:00:00Z,28.4330,-82.6670,10.0,1.0,150.0,,'1111122,1111122,1111122' 
COMPS,ioos:station:USF.COMPS:ARP:1,2010-05-03T12:00:00Z,28.4330,-82.6670,10.0,2.6,150.0,,'1111122,1111122,1111122' 
COMPS,ioos:station:USF.COMPS:ARP:1,2010-05-03T14:00:00Z,28.4330,-82.6670,10.0,2.6,170.0,,'1111122,1111122,1111122' 
COMPS,ioos:station:USF.COMPS:ARP:1,2010-05-03T15:00:00Z,28.4330,-82.6670,10.0,2.1,170.0,,'1111122,1111122,1111122' 
COMPS,ioos:station:USF.COMPS:ARP:1,2010-05-03T16:00:00Z,28.4330,-82.6670,10.0,3.1,240.0,,'1111122,1111122,1111122' 
COMPS,ioos:station:USF.COMPS:ARP:1,2010-05-03T18:00:00Z,28.4330,-82.6670,10.0,6.2,270.0,,'1111122,1111122,1111122' 
COMPS,ioos:station:USF.COMPS:ARP:1,2010-05-03T19:00:00Z,28.4330,-82.6670,10.0,5.7,270.0,,'1111122,1111122,1111122' 
COMPS,ioos:station:USF.COMPS:ARP:1,2010-05-03T20:00:00Z,28.4330,-82.6670,10.0,6.2,270.0,,'1111122,1111122,1111122' 
COMPS,ioos:station:USF.COMPS:ARP:1,2010-05-03T21:00:00Z,28.4330,-82.6670,10.0,6.7,270.0,,'1111122,1111122,1111122' 
COMPS,ioos:station:USF.COMPS:ARP:1,2010-05-03T22:00:00Z,28.4330,-82.6670,10.0,6.2,270.0,,'1111122,1111122,1111122' 
COMPS,ioos:station:USF.COMPS:ARP:1,2010-05-03T23:00:00Z,28.4330,-82.6670,10.0,4.1,270.0,,'1111122,1111122,1111122' 
COMPS,ioos:station:USF.COMPS:ARP:1,2010-05-04T01:00:00Z,28.4330,-82.6670,10.0,2.6,260.0,,'1111122,1111122,1111122' 
COMPS,ioos:station:USF.COMPS:ARP:1,2010-05-04T02:00:00Z,28.4330,-82.6670,10.0,1.5,230.0,,'1111122,1111122,1111122' 
COMPS,ioos:station:USF.COMPS:ARP:1,2010-05-04T04:00:00Z,28.4330,-82.6670,10.0,1.5,200.0,,'1111122,1111122,1111122' 
COMPS,ioos:station:USF.COMPS:ARP:1,2010-05-04T05:00:00Z,28.4330,-82.6670,10.0,1.0,210.0,,'1111122,1111122,1111122' 
COMPS,ioos:station:USF.COMPS:ARP:1,2010-05-04T07:00:00Z,28.4330,-82.6670,10.0,1.0,210.0,,'1111122,1111122,1111122' 
COMPS,ioos:station:USF.COMPS:ARP:1,2010-05-04T08:00:00Z,28.4330,-82.6670,10.0,1.0,140.0,,'1111122,1111122,1111122' 
COMPS,ioos:station:USF.COMPS:ARP:1,2010-05-04T10:00:00Z,28.4330,-82.6670,10.0,1.0,140.0,,'1111122,1111122,1111122' 
COMPS,ioos:station:USF.COMPS:ARP:1,2010-05-04T11:00:00Z,28.4330,-82.6670,10.0,1.0,140.0,,'1111122,1111122,1111122' 
COMPS,ioos:station:USF.COMPS:ARP:1,2010-05-04T12:00:00Z,28.4330,-82.6670,10.0,1.0,160.0,,'1111122,1111122,1111122' 
COMPS,ioos:station:USF.COMPS:ARP:1,2010-05-04T13:00:00Z,28.4330,-82.6670,10.0,1.5,210.0,,'1111122,1111122,1111122' 
 
DISCLAIMER: The Gulf of Mexico Coastal and Ocean Observing (GCOOS) Data Portal aggregates data from the regional data providers for the convenience of all data users. Data published on this website should not be used for navigation or certain other uses as we cannot guarantee data accuracy or availability. The data and delivery services are provided 'as is' without warranty of any kind. Data Source: Gulf of Mexico Coastal Ocean Observing System Data Portal (http://data.gcoos.org/) 
